Mexia, TX

8:08 PM CDT on March 29, 2017 (GMT -0500)
Amateur Radio Station KC5PID | | Change Station

Elev 502 ft 31.67 °N, 96.47 °W | Updated 5 seconds ago

Partly Cloudy
Partly Cloudy
70.3 °F
Feels Like 76 °F
N
0.0
Wind Variable Wind from South
Gusts 0.0 mph

Today
High -- | Low -- °F
--% Chance of Precip.
Yesterday
High -- | Low -- °F
Precip. -- in
Pressure 29.77 in
Visibility 10.0 miles
Clouds Clear
Heat Index 76 °F
Dew Point 57 °F
Humidity 62%
Rainfall 1.38 in
Snow Depth Not available.
7:17 AM 7:43 PM
Waxing Crescent, 5% visible
METAR KLXY 300055Z AUTO 00000KT 10SM CLR 22/10 A2977 RMK AO2 T02170102
Pressure 29.77 in
Visibility 10.0 miles
Clouds Clear
Heat Index 76 °F
Dew Point 57 °F
Humidity 62%
Rainfall 1.38 in
Snow Depth Not available.
7:17 AM 7:43 PM
Waxing Crescent, 5% visible
METAR KLXY 300055Z AUTO 00000KT 10SM CLR 22/10 A2977 RMK AO2 T02170102

Get Severe Weather Alerts

Thanks for signing up!

Be on the lookout for a verification email in your inbox.

You'll start receiving the daily forecast at 8 AM.

×

10-Day Weather Forecast

Almanac

Astronomy

Mar. 29, 2017 Rise Set
Actual Time
Civil Twilight
Nautical Twilight
Astronomical Twilight
Moon
Length of Visible Light
Length of Day
Tomorrow will be .
, % of the Moon is Illuminated

Today's Extremes

State Highs State Lows

Community

WunderPhotos

Upload Photos

1,962,540 photos uploaded!

WunderBlog® & News

Nearby

Air Quality

  Air Quality AQ Index Pollutant
Not available.

Snow Depth

Station Depth Elevation

Earthquake Activity

City Distance Mag. Time & Date
Minimum magnitude displayed is 2.5.

Earthquake Activity

City Distance Mag. Time & Date
Minimum magnitude displayed is 2.5.

Coastal Water Temperatures

Place Temperature

Stations

Nearby Weather Stations

Station Location Temp. Windchill Dew Point Humidity Wind Precip. Elev Updated Type
                   

Watches & Warnings

There are currently no watches in effect.